Weather History for Orange, VA

Change the Weather History Date:

Monday, December 23, 2013

  Actual Average Record
Temperature  
Mean Temperature 54 °F -  
Max Temperature 68 °F 44 °F 68 °F (2013)
Min Temperature 41 °F 24 °F -4 °F (1989)
Degree Days  
Heating Degree Days 10    
Growing Degree Days 4 (Base 50)    
Moisture  
Dew Point 56 °F    
Average Humidity 93    
Maximum Humidity 100    
Minimum Humidity 70    
Precipitation  
Precipitation 0.50 in - - ()
Sea Level Pressure  
Sea Level Pressure 30.06 in    
Wind  
Wind Speed 6 mph (SSW)    
Max Wind Speed 13 mph    
Max Gust Speed 22 mph    
Visibility 10 miles    
Events Rain    
Averages and records for this station are not official NWS values.
T = Trace of Precipitation, MM = Missing Value Source: NWS Daily Summary

Daily Weather History Graph

Daily Weather History Graph

Search for Another Location

Airport:

Trip Planner

Search our weather history database for the weather conditions in past years. The results will help you decide how hot, cold, wet, or windy it might be!

Date:

Astronomy

Dec. 23, 2013 Rise Set
Actual Time 7:26 AM EST 4:56 PM EST
Civil Twilight 6:56 AM EST 5:26 PM EST
Nautical Twilight 6:23 AM EST 5:59 PM EST
Astronomical Twilight 5:51 AM EST 6:31 PM EST
Moon 10:59 PM EST (12/23) 10:55 AM EST (12/23)
Length of Visible Light 10h 29m
Length of Day
9h 30m
Waning Gibbous, 68% of the Moon is Illuminated
Dec 23
Waning Gibbous
Dec 25
Last Quarter
Jan 1
New
Jan 7
First Quarter
Jan 15
Full

Hourly Weather History & Observations

Time (EST) Temp. Windchill Dew Point Humidity Pressure Visibility Wind Dir Wind Speed Gust Speed Precip Events Conditions
12:15 AM 64.4 °F - 64.4 °F 100% 30.01 in 10.0 mi SSE 6.9 mph - N/A Rain Rain
12:35 AM 64.4 °F - 64.4 °F 100% 30.00 in 10.0 mi SSE 8.1 mph - N/A Rain Rain
12:55 AM 64.4 °F - 64.4 °F 100% 30.01 in 10.0 mi SSE 8.1 mph - N/A Rain Rain
1:15 AM 64.4 °F - 64.4 °F 100% 30.00 in 10.0 mi South 6.9 mph - 0.01 in Rain Rain
1:35 AM 64.4 °F - 64.4 °F 100% 30.01 in 10.0 mi South 8.1 mph - 0.04 in Rain Light Rain
1:55 AM 64.4 °F - 64.4 °F 100% 30.00 in 10.0 mi South 5.8 mph - 0.05 in Rain Light Rain
2:15 AM 64.4 °F - 64.4 °F 100% 29.99 in 10.0 mi SSE 5.8 mph - 0.01 in Rain Light Rain
2:35 AM 64.4 °F - 64.4 °F 100% 29.99 in 10.0 mi SSE 5.8 mph - 0.02 in Rain Light Rain
2:55 AM 64.4 °F - 64.4 °F 100% 29.99 in 10.0 mi SSE 5.8 mph - 0.04 in Rain Rain
3:15 AM 66.2 °F - 66.2 °F 100% 30.00 in 10.0 mi SSE 5.8 mph - 0.02 in Rain Rain
3:35 AM 66.2 °F - 66.2 °F 100% 29.98 in 10.0 mi South 4.6 mph - 0.05 in Rain Rain
3:55 AM 66.2 °F - 66.2 °F 100% 29.98 in 10.0 mi SSE 6.9 mph - 0.06 in Rain Light Rain
4:15 AM 66.2 °F - 66.2 °F 100% 29.97 in 10.0 mi SSE 5.8 mph - N/A Rain Rain
4:35 AM 66.2 °F - 66.2 °F 100% 29.96 in 10.0 mi SSE 4.6 mph - 0.02 in Rain Rain
4:55 AM 66.2 °F - 66.2 °F 100% 29.96 in 10.0 mi SSE 3.5 mph - 0.03 in Rain Light Rain
5:15 AM 66.2 °F - 66.2 °F 100% 29.97 in 10.0 mi South 5.8 mph - 0.01 in Rain Rain
5:35 AM 66.2 °F - 66.2 °F 100% 29.97 in 10.0 mi SSE 5.8 mph - 0.03 in Rain Rain
5:55 AM 66.2 °F - 66.2 °F 100% 29.99 in 7.0 mi SSW 5.8 mph - 0.05 in Rain Rain
6:15 AM 64.4 °F - 64.4 °F 100% 29.98 in 7.0 mi South 6.9 mph - 0.01 in Rain Light Rain
6:35 AM 64.4 °F - 64.4 °F 100% 29.98 in 10.0 mi South 4.6 mph - 0.01 in   Drizzle
6:55 AM 64.4 °F - 64.4 °F 100% 29.97 in 10.0 mi SSE 3.5 mph - 0.02 in Rain Rain
7:15 AM 64.4 °F - 64.4 °F 100% 29.98 in 10.0 mi Calm Calm - 0.01 in Rain Light Rain
7:35 AM 64.4 °F - 64.4 °F 100% 29.98 in 10.0 mi Calm Calm - 0.03 in Rain Rain
7:55 AM 64.4 °F - 64.4 °F 100% 29.96 in 10.0 mi SE 4.6 mph - 0.06 in Rain Rain
8:15 AM 66.2 °F - 66.2 °F 100% 29.96 in 10.0 mi SSE 8.1 mph - 0.01 in Rain Light Rain
8:35 AM 68.0 °F - 68.0 °F 100% 29.95 in 10.0 mi SE 9.2 mph 16.1 mph 0.02 in Rain Rain
8:55 AM 68.0 °F - 68.0 °F 100% 29.95 in 10.0 mi SE 6.9 mph - 0.04 in Rain Light Rain
9:15 AM 68.0 °F - 68.0 °F 100% 29.96 in 10.0 mi SSE 8.1 mph - N/A Rain Light Rain
9:35 AM 64.4 °F - 64.4 °F 100% 30.01 in 5.0 mi SW 12.7 mph 21.9 mph 0.03 in Rain Rain
9:55 AM 62.6 °F - 62.6 °F 100% 30.01 in 5.0 mi SW 4.6 mph - 0.06 in Rain Rain
10:15 AM 62.6 °F - 62.6 °F 100% 30.01 in 10.0 mi SSW 3.5 mph - 0.01 in Rain Rain
10:35 AM 62.6 °F - 62.6 °F 100% 30.01 in 10.0 mi South 3.5 mph - 0.01 in   Light Drizzle
10:55 AM 62.6 °F - 62.6 °F 100% 30.01 in 10.0 mi Calm Calm - 0.01 in   Overcast
11:15 AM 62.6 °F - 62.6 °F 100% 30.01 in 5.0 mi SW 3.5 mph - N/A Rain Rain
11:35 AM 62.6 °F - 62.6 °F 100% 29.99 in 10.0 mi Calm Calm - N/A   Overcast
11:55 AM 62.6 °F - 62.6 °F 100% 30.00 in 10.0 mi Calm Calm - 0.01 in   Drizzle
12:15 PM 62.6 °F - 62.6 °F 100% 30.00 in 10.0 mi Calm Calm - N/A   Overcast
12:35 PM 62.6 °F - 62.6 °F 100% 30.01 in 7.0 mi Calm Calm - 0.01 in Rain Light Rain
12:55 PM 62.6 °F - 62.6 °F 100% 30.02 in 7.0 mi Calm Calm - 0.01 in   Drizzle
1:15 PM 62.6 °F - 62.6 °F 100% 30.01 in 10.0 mi Calm Calm - 0.01 in   Light Drizzle
1:35 PM 62.6 °F - 62.6 °F 100% 30.01 in 10.0 mi Calm Calm - 0.01 in   Overcast
1:55 PM 62.6 °F - 62.6 °F 100% 30.02 in 10.0 mi Calm Calm - 0.01 in Rain Rain
2:15 PM 62.6 °F - 62.6 °F 100% 30.02 in 10.0 mi Calm Calm - N/A Rain Rain
2:35 PM 60.8 °F - 60.8 °F 100% 30.03 in 7.0 mi North 6.9 mph - N/A Rain Rain
2:55 PM 59.0 °F - 59.0 °F 100% 30.05 in 7.0 mi North 6.9 mph - 0.02 in Rain Rain
3:15 PM 59.0 °F - 59.0 °F 100% 30.06 in 5.0 mi North 6.9 mph - 0.02 in Rain Light Rain
3:35 PM 55.4 °F - 55.4 °F 100% 30.07 in 10.0 mi Calm Calm - 0.03 in Rain Rain
3:55 PM 55.4 °F - 55.4 °F 100% 30.09 in 10.0 mi Calm Calm - 0.03 in Rain Rain
4:15 PM 55.4 °F - 55.4 °F 100% 30.09 in 10.0 mi WNW 3.5 mph - N/A   Light Drizzle
4:35 PM 55.4 °F - 55.4 °F 100% 30.10 in 10.0 mi Calm Calm - N/A   Overcast
4:55 PM 55.4 °F - 53.6 °F 94% 30.12 in 10.0 mi Calm Calm - N/A   Overcast
5:15 PM 55.4 °F - 53.6 °F 94% 30.12 in 10.0 mi Calm Calm - N/A   Overcast
5:35 PM 53.6 °F - 53.6 °F 100% 30.13 in 10.0 mi North 3.5 mph - N/A   Overcast
5:55 PM 53.6 °F - 48.2 °F 82% 30.13 in 10.0 mi NNW 9.2 mph - N/A   Overcast
6:15 PM 51.8 °F - 44.6 °F 76% 30.14 in 10.0 mi NNW 11.5 mph - N/A   Overcast
6:35 PM 51.8 °F - 44.6 °F 76% 30.14 in 10.0 mi NNW 6.9 mph - N/A   Overcast
6:55 PM 51.8 °F - 42.8 °F 71% 30.16 in 10.0 mi NNW 9.2 mph - N/A   Mostly Cloudy
7:15 PM 50.0 °F - 41.0 °F 71% 30.16 in 10.0 mi NNW 9.2 mph - N/A   Scattered Clouds
7:35 PM 48.2 °F - 41.0 °F 76% 30.17 in 10.0 mi NNW 9.2 mph 20.7 mph N/A   Scattered Clouds
7:55 PM 46.4 °F 41.5 °F 37.4 °F 71% 30.17 in 10.0 mi NNW 10.4 mph 17.3 mph N/A   Clear
8:15 PM 46.4 °F 41.9 °F 37.4 °F 71% 30.18 in 10.0 mi NNW 9.2 mph 17.3 mph N/A   Clear
8:35 PM 46.4 °F 41.1 °F 37.4 °F 71% 30.20 in 10.0 mi North 11.5 mph 21.9 mph N/A   Clear
8:55 PM 44.6 °F 38.8 °F 37.4 °F 76% 30.21 in 10.0 mi North 11.5 mph 17.3 mph N/A   Clear
9:15 PM 44.6 °F 39.2 °F 35.6 °F 71% 30.21 in 10.0 mi North 10.4 mph 16.1 mph N/A   Clear
9:35 PM 44.6 °F 39.7 °F 35.6 °F 71% 30.22 in 10.0 mi North 9.2 mph 16.1 mph N/A   Clear
9:55 PM 42.8 °F 37.5 °F 35.6 °F 76% 30.23 in 10.0 mi North 9.2 mph - N/A   Clear
10:15 PM 42.8 °F 38.0 °F 35.6 °F 76% 30.23 in 10.0 mi NNW 8.1 mph - N/A   Clear
10:35 PM 42.8 °F 39.3 °F 33.8 °F 70% 30.24 in 10.0 mi North 5.8 mph - N/A   Clear
10:55 PM 42.8 °F 38.0 °F 33.8 °F 70% 30.24 in 10.0 mi North 8.1 mph - N/A   Clear
11:15 PM 41.0 °F 36.4 °F 33.8 °F 76% 30.24 in 10.0 mi NNW 6.9 mph - N/A   Clear
11:35 PM 41.0 °F 37.1 °F 32.0 °F 70% 30.24 in 10.0 mi NNW 5.8 mph - N/A   Clear
11:55 PM 41.0 °F 36.4 °F 32.0 °F 70% 30.23 in 10.0 mi North 6.9 mph - N/A   Clear